YAOGAN 10

Last updated on Wed Apr 24 2024 00:02:24 GMT+0000 (Coordinated Universal Time)

1 36834U 10038A 24114.60832406 .00002287 00000+0 29030-3 0 9992 2 36834 97.9515 132.0496 0001728 97.6346 13.5767 14.82667384740841

Satellite not in orbit

YAOGAN 10